Location: Hertford
(51.8000°N, 0.0667°W)
Time: 13:52:22
(UTC+00:00)

Terra - Pass Details

Date: 18 September 2020
Orbit: 701 x 703 km, 98.2° (Epoch: 26 October)

Event Time Altitude Azimuth Distance (km) Brightness Sun altitude
Exits shadow 21:58:06 42° 335° (NNW) 999 2.9 -31.4°
Drops below altitude 10° 22:01:18 10° 343° (NNW) 2,184 5.2 -31.7°
Sets 22:03:35 0° 345° (NNW) 3,107 6.2 -31.9°
